Dewpoint
73 74 77 76 75 76 76 76 77 78 78 78 78 78 78 77 77 78 77 76 76 76 76 73 74 74 74 75 75 74 74 75 75 74 74 75 75 74 75 74 74 72 74
73 74 77 76 76 76 76 77 78 77 77 77 78 77 77 76 75 76 76 76 76 76 75 73 75 75 75 75 75 75 75 74 75 74 74 74 74 74 74 74 74 73 74
74 74 74 76 76 75 76 77 77 76 75 76 76 76 76 75 75 75 75 76 76 76 74 73 74 75 75 75 75 75 75 75 75 74 74 72 72 74 74 74 74 74 74
74 73 73 76 77 76 76 77 77 75 75 76 76 76 75 76 76 76 75 74 75 75 74 74 75 74 75 75 74 74 74 74 75 74 72 71 71 74 74 74 74 74 74
73 73 73 77 77 76 75 76 77 77 75 75 75 75 74 74 75 75 76 75 75 74 75 74 74 75 75 74 73 74 73 71 71 71 70 72 72 72 74 74 73 73 74
73 74 75 76 75 76 75 75 76 76 76 75 75 75 74 74 74 74 74 73 74 75 74 74 73 73 73 71 71 71 71 71 72 70 71 74 72 73 73 74 73 73 74
73 74 74 76 77 76 75 75 75 76 76 76 75 74 74 74 74 74 73 73 73 73 73 72 72 72 73 71 70 71 70 68 70 71 71 71 73 74 74 73 73 73 74
73 74 74 76 76 75 75 75 75 75 76 75 75 75 74 74 73 72 72 73 72 72 71 71 71 71 72 72 71 70 70 68 71 71 71 72 73 75 74 73 74 74 73
73 73 73 73 73 75 77 75 75 76 75 75 75 75 73 73 73 73 72 73 72 72 72 72 72 72 73 72 70 70 68 70 70 71 71 72 73 73 72 73 74 73 73
72 73 72 72 73 74 75 76 76 75 75 74 73 72 71 72 71 73 72 71 70 70 70 71 73 73 73 73 72 71 69 70 68 69 71 72 74 73 73 73 73 73 73
73 73 73 73 74 74 74 74 75 75 73 73 72 72 72 71 70 71 71 70 69 69 70 71 72 73 73 73 73 72 70 70 68 70 71 73 74 73 73 73 73 73 73
71 72 72 73 74 74 74 73 73 72 72 71 71 69 67 67 69 70 70 70 70 71 72 73 72 73 72 72 72 73 72 71 69 69 70 73 74 72 73 73 73 74 74
70 71 72 73 73 73 73 73 73 72 72 71 69 67 65 66 66 69 68 67 69 70 71 72 72 71 72 72 71 71 71 70 70 69 69 71 73 71 71 73 74 73 74
69 70 71 71 72 72 73 73 73 72 72 71 69 67 66 65 65 67 66 67 70 70 70 71 71 71 71 72 71 71 71 72 70 70 70 72 73 71 72 72 73 74 73
69 69 70 71 71 71 73 73 73 73 72 71 70 67 66 65 65 65 66 68 70 71 70 70 70 71 71 72 72 72 69 71 71 71 70 72 71 71 72 70 72 73 73
70 69 70 71 70 71 72 72 72 73 72 71 71 69 66 67 67 66 64 65 68 69 70 70 70 71 70 70 71 72 70 71 71 70 71 70 71 73 72 71 71 72 72
71 71 70 71 71 71 72 72 72 71 71 71 71 70 68 68 68 69 68 67 66 68 70 71 71 71 71 70 69 71 72 71 71 69 71 70 71 71 71 72 73 73 72
71 71 71 70 71 71 71 72 72 71 71 71 72 72 72 71 70 70 69 68 68 69 70 71 70 70 69 70 70 71 71 71 71 70 71 71 70 70 72 73 74 74 73
71 71 71 72 71 71 71 71 71 71 72 72 72 71 72 72 71 70 69 68 68 67 68 70 71 70 68 70 71 71 70 71 71 71 71 71 71 70 70 73 74 74 73
71 71 71 71 71 71 72 72 72 71 71 72 71 71 72 72 71 70 69 68 68 69 69 70 69 70 69 69 72 70 68 70 70 72 71 71 71 71 71 70 72 72 74
70 70 69 69 69 71 71 70 70 70 70 70 71 71 72 72 71 70 69 68 67 66 67 69 69 68 68 70 68 67 66 67 70 71 71 70 70 70 71 70 71 71 72
68 70 68 67 69 71 71 71 71 70 71 71 71 71 71 71 70 71 70 69 68 67 67 69 69 68 67 66 67 65 63 65 68 69 70 70 70 71 71 71 69 70 70
67 67 68 69 71 71 71 71 71 71 71 71 70 71 71 71 70 71 70 70 70 69 68 68 70 68 66 69 70 66 63 60 63 67 68 68 70 71 69 70 70 70 70
66 68 69 70 71 71 71 71 70 70 68 69 70 70 70 72 72 71 70 70 70 71 70 69 70 69 69 68 69 70 68 65 62 61 65 67 65 67 68 70 70 70 70
66 68 69 70 70 71 71 71 71 69 69 70 69 69 69 70 71 71 70 70 69 70 71 70 70 70 70 69 68 67 67 66 66 63 61 62 66 68 69 70 69 69 68
65 68 70 70 70 71 72 71 71 68 69 70 70 68 69 70 71 71 71 71 71 71 70 71 71 71 70 70 68 67 65 64 64 64 63 63 63 66 68 70 70 70 68
Lifted_Index
-3 -4 -4 -4 -4 -4 -4 -5 -5 -6 -6 -6 -6 -6 -6 -6 -6 -6 -6 -5 -6 -6 -6 -5 -5 -6 -6 -6 -6 -6 -6 -6 -6 -6 -6 -6 -6 -6 -6 -5 -5 -6 -6
-3 -3 -4 -4 -4 -4 -4 -5 -5 -5 -5 -6 -6 -6 -6 -5 -5 -5 -5 -6 -6 -6 -5 -5 -5 -6 -6 -6 -6 -6 -6 -6 -6 -6 -6 -6 -6 -6 -6 -5 -5 -6 -6
-3 -3 -4 -4 -4 -4 -5 -5 -5 -5 -5 -5 -5 -5 -5 -5 -5 -5 -5 -5 -6 -6 -5 -5 -5 -6 -6 -6 -5 -5 -5 -6 -6 -6 -5 -5 -5 -6 -6 -5 -5 -6 -6
-3 -3 -3 -4 -4 -4 -5 -5 -5 -5 -4 -5 -5 -5 -5 -5 -5 -5 -5 -5 -5 -5 -5 -5 -5 -5 -5 -5 -5 -5 -5 -5 -5 -5 -5 -5 -5 -5 -5 -5 -5 -5 -5
-2 -3 -3 -4 -4 -4 -4 -5 -5 -5 -5 -4 -5 -4 -5 -5 -5 -5 -5 -5 -5 -5 -5 -5 -5 -5 -5 -4 -4 -4 -4 -4 -4 -4 -4 -5 -5 -5 -5 -5 -5 -5 -5
-2 -3 -3 -4 -4 -4 -4 -4 -5 -5 -5 -4 -4 -4 -4 -4 -4 -4 -4 -4 -5 -5 -5 -5 -4 -4 -4 -3 -2 -3 -3 -3 -3 -3 -4 -4 -4 -4 -5 -5 -5 -5 -5
-3 -3 -3 -4 -4 -4 -4 -4 -4 -4 -5 -5 -4 -4 -4 -4 -3 -3 -3 -4 -4 -4 -4 -4 -4 -3 -3 -2 -2 -2 -2 -2 -2 -3 -3 -4 -4 -4 -5 -5 -5 -5 -5
-3 -3 -3 -4 -4 -4 -4 -4 -4 -4 -4 -4 -4 -4 -4 -4 -3 -3 -3 -3 -4 -4 -4 -4 -3 -3 -3 -3 -2 -2 -2 -2 -2 -2 -3 -3 -4 -4 -4 -5 -5 -5 -5
-3 -3 -3 -3 -3 -4 -4 -4 -4 -4 -4 -4 -4 -3 -3 -3 -3 -3 -3 -3 -3 -3 -3 -4 -4 -3 -3 -3 -2 -2 -1 -2 -2 -2 -2 -3 -4 -4 -4 -4 -5 -5 -5
-4 -4 -3 -3 -3 -4 -4 -4 -4 -4 -3 -3 -3 -2 -2 -2 -2 -2 -2 -2 -2 -2 -3 -3 -4 -3 -3 -3 -3 -2 -2 -1 -1 -1 -2 -3 -4 -4 -4 -5 -5 -5 -5
-4 -4 -4 -3 -4 -4 -4 -5 -4 -4 -3 -2 -2 -2 -1 -1 -1 -1 -2 -2 -2 -2 -2 -3 -3 -3 -3 -3 -3 -2 -2 -1 -1 -1 -2 -3 -4 -4 -5 -5 -5 -5 -5
-4 -4 -4 -4 -4 -4 -4 -4 -4 -3 -2 -2 -2 -1 0 1 0 -0 -1 -1 -1 -2 -2 -3 -3 -3 -3 -3 -3 -2 -2 -1 -1 -1 -2 -3 -4 -4 -4 -5 -5 -5 -5
-3 -4 -4 -4 -4 -4 -4 -4 -4 -3 -3 -2 -2 -0 1 2 1 1 0 0 -0 -1 -2 -3 -3 -3 -3 -3 -2 -2 -2 -1 -1 -1 -2 -3 -3 -3 -4 -4 -5 -5 -6
-3 -3 -3 -3 -3 -3 -4 -4 -4 -4 -3 -3 -2 -1 0 1 1 1 1 1 0 -1 -2 -2 -3 -3 -3 -2 -2 -2 -2 -1 -1 -1 -1 -2 -2 -3 -3 -4 -5 -5 -5
-3 -3 -3 -3 -3 -3 -3 -4 -4 -4 -4 -3 -2 -1 -1 -0 1 1 2 1 -0 -1 -2 -2 -3 -3 -3 -3 -2 -2 -2 -1 -1 -1 -1 -1 -2 -2 -3 -3 -4 -4 -5
-3 -3 -3 -3 -3 -3 -3 -3 -3 -3 -3 -3 -2 -2 -1 -1 -0 1 1 0 -0 -1 -2 -2 -3 -3 -3 -3 -2 -2 -2 -1 -1 -1 -1 -1 -1 -2 -2 -3 -3 -4 -4
-3 -3 -3 -4 -4 -3 -3 -3 -3 -3 -3 -3 -2 -2 -2 -1 -1 -0 -0 -0 -0 -1 -2 -2 -3 -3 -3 -2 -2 -2 -2 -2 -2 -1 -1 -1 -1 -2 -2 -3 -3 -4 -4
-2 -2 -3 -4 -4 -4 -3 -3 -3 -3 -3 -2 -2 -2 -2 -2 -2 -1 -1 -1 -0 -1 -1 -2 -3 -3 -2 -2 -2 -2 -2 -2 -2 -2 -2 -1 -1 -2 -2 -3 -4 -4 -4
-2 -2 -2 -3 -4 -4 -3 -3 -3 -3 -3 -3 -2 -2 -2 -3 -2 -2 -1 -0 -0 -1 -1 -2 -2 -2 -2 -2 -3 -3 -3 -3 -3 -3 -2 -2 -2 -2 -2 -3 -4 -4 -4
-2 -2 -2 -3 -3 -3 -3 -3 -3 -3 -3 -3 -3 -2 -2 -2 -2 -2 -1 0 0 -0 -1 -2 -2 -2 -2 -2 -3 -3 -3 -3 -3 -3 -3 -2 -2 -2 -2 -3 -3 -4 -4
-2 -2 -2 -2 -3 -3 -3 -3 -3 -3 -3 -3 -2 -2 -2 -2 -2 -1 -0 -0 0 -0 -1 -2 -2 -2 -1 -2 -2 -2 -2 -3 -3 -3 -3 -2 -2 -2 -2 -2 -3 -3 -4
-1 -2 -2 -2 -3 -3 -3 -3 -3 -3 -4 -3 -3 -2 -2 -2 -1 -1 -1 -1 -0 -0 -1 -2 -2 -2 -1 -1 -2 -2 -2 -2 -3 -3 -3 -3 -2 -2 -2 -2 -2 -2 -3
-1 -2 -2 -2 -3 -3 -4 -4 -4 -4 -4 -4 -3 -3 -2 -2 -1 -1 -1 -1 -1 -1 -1 -2 -2 -2 -2 -2 -2 -2 -2 -1 -2 -2 -2 -3 -3 -3 -3 -2 -2 -2 -2
-1 -2 -2 -3 -4 -4 -4 -4 -4 -4 -4 -4 -4 -3 -3 -2 -2 -2 -2 -2 -1 -2 -2 -2 -2 -2 -2 -2 -2 -2 -2 -1 -1 -1 -1 -2 -2 -3 -3 -3 -2 -2 -2
-1 -2 -3 -4 -4 -4 -4 -4 -4 -4 -4 -4 -4 -3 -3 -2 -2 -2 -2 -2 -2 -2 -2 -2 -3 -3 -3 -3 -3 -2 -2 -1 -1 -0 -0 -1 -2 -2 -2 -3 -3 -3 -2
-2 -2 -3 -4 -4 -4 -4 -5 -4 -4 -4 -4 -4 -3 -2 -2 -2 -2 -2 -2 -2 -2 -2 -2 -3 -3 -3 -3 -3 -2 -2 -1 -1 -0 -0 -0 -1 -2 -2 -3 -3 -3 -3